Find Starlink 37967

NORAD ID: 100479 Int'l Des: 2026-196 Owner: SPXS Country: US Constellation: starlink operational

当前视图

正在加载3D地球...

About Starlink 37967

Starlink 37967 (NORAD 100479) is a starlink constellation satellite launched Aug 25, 2026 by SPXS of US. with a mass of 575.00 kg.

即将过境

Passes for default location (London). Set your location on the main map for personalized predictions.

高度历史

Loading altitude history...

两行轨道根数

1 A0479U 26196G 26249.30309777 -.01930761 97364-3 -71003-2 0 9997
2 A0479 53.1593 312.6132 0022297 182.1790 177.9142 15.87307254 3114
Epoch: Sep 6, 2026 • Age: 13 hours

当前状态

高度 336.2 km
远地点 / 近地点 N/A
速度 7.70 km/s
星下点 -51.49°S, 53.9°W
发射日期 Aug 25, 2026
运行时间 12 days
类型 internet

技术详情

分类 Payload
质量 575.00 kg
干质量 530.00 kg
总质量 575.00 kg
长度 0.30 m
直径 4.10 m
跨度 29.00 m
形状 Box + pan
制造商 SPXS
平台类型 Starlink V2MO
阶段状态 In Orbit
所有者/国家 SPXS/US

Most Searched